Location: Aulnoy
(48.8410°N, 3.0967°E)
Time: 06:20:59
(UTC+00:00)

Cosmos 841 Rocket - Pass Details

Date: 09 February 2023
Orbit: 746 x 771 km, 74.0° (Epoch: 30 March)

Event Time Altitude Azimuth Distance (km) Brightness Sun altitude
Rises 17:53:52 0° 334° (NNW) 3,256 7.0 -9.6°
Reaches altitude 10° 17:56:17 10° 332° (NNW) 2,323 6.2 -10.0°
Maximum altitude 18:01:30 66° 251° (WSW) 838 4.0 -10.9°
Drops below altitude 10° 18:06:40 10° 170° (S) 2,296 6.0 -11.7°
Sets 18:09:02 0° 168° (SSE) 3,214 6.7 -12.1°
